Regional Weather Roundup
Issued by NWS

Home | Current Version | Previous Version | Graphics & Text | Print | Product List | Glossary On
Versions: 1 2 3 4 5 6 7 8 9 10 11 12 13 14 15 16 17 18 19 20 21 22 23 24 25 26 27 28 29 30 31 32 33 34 35 36 37 38 39 40 41 42 43 44 45 46 47 48 49 50
000
ASUS43 KFSD 300202
RWRSD

WEATHER ROUNDUP FOR SOUTH DAKOTA
NATIONAL WEATHER SERVICE SIOUX FALLS SD
900 PM CDT MON AUG 29 2016

NOTE: "FAIR" INDICATES FEW OR NO CLOUDS BELOW 12,000 FEET WITH NO
SIGNIFICANT WEATHER AND/OR OBSTRUCTIONS TO VISIBILITY.


SDZ001>005-009-010-012>017-300300-
NORTHWEST AND NORTH CENTRAL SOUTH DAKOTA

CITY           SKY/WX    TMP DP  RH WIND       PRES   REMARKS
BUFFALO          N/A     70  46  42 E14       30.17S
FAITH            N/A     70  50  49 NE12      30.22R
MOBRIDGE       CLOUDY    74  51  44 NE10      30.18R
$$

SDZ012>016-024>037-041>051-057-063-072>074-300300-
SOUTHWEST AND SOUTH CENTRAL SOUTH DAKOTA

CITY           SKY/WX    TMP DP  RH WIND       PRES   REMARKS
RAPID CTY ARPT CLOUDY    70  60  70 NE9       30.23R
PIERRE         CLOUDY    79  66  64 E10       30.14R
CUSTER         CLOUDY    65  52  62 NE8       30.37S
ELLSWORTH AFB  CLOUDY    74  60  60 E3        30.23R
PHILIP         CLOUDY    77  67  71 NE9       30.17R
PINE RIDGE     CLOUDY    75  61  61 CALM      30.22R
WINNER         FAIR      77  65  66 SE6       30.15R
$$

SDZ004>011-016>023-039-040-300300-
NORTHEAST SOUTH DAKOTA

CITY           SKY/WX    TMP DP  RH WIND       PRES   REMARKS
ABERDEEN       PTCLDY    73  62  68 N8        30.18R
WATERTOWN      TSTM      70  60  70 NE3       30.19R
SISSETON         N/A     74  68  81 N7        30.16R
$$

SDZ017-020-022-023-036>040-048>070-300300-
SOUTHEAST SOUTH DAKOTA

CITY           SKY/WX    TMP DP  RH WIND       PRES   REMARKS
SIOUX FALLS    CLOUDY    76  67  73 S5        30.15S
HURON          CLOUDY    80  69  69 N5        30.13R
CHAMBERLAIN    CLOUDY    76  68  77 SE6       30.14R
MITCHELL       MOCLDY    76  65  68 S8        30.14R
YANKTON        CLOUDY    73  68  83 E5        30.13R
$$

ABBREVIATIONS USED IN REMARKS
   TC - TEMPERATURE IN CELSIUS
  WCI - WIND CHILL INDEX
   HX - HEAT INDEX
  VSB - VISIBILITY





USA.gov is the U.S. government's official web portal to all federal, state and local government web resources and services.